Terug naar catalogus

IRIDIUM 33 DEB

ActiefPO
NORAD 35051·DEBRIS·🇺🇸 United States

Gelanceerd Sep 14, 1997 vanaf Baikonur Cosmodrome

Loading…

Volgende Passages (komende 24 uur)

TLE

VersSource: Space-Track

Epoch: Sep 14, 2026, 10:18 UTC

1 35051U 97051NX  26257.42944308  .00001344  00000-0  35149-3 0  9999
2 35051  86.3188 248.5522 0005694 242.3028 117.7598 14.48706488909863

Volg IRIDIUM 33 DEB in realtime met AllMySat

Download on the App Store